カタログに戻る

STARLINK-33662

運用中通信VLEO
NORAD 63285·PAYLOAD·🇺🇸 United States

打ち上げ Mar 15, 2025 から Cape Canaveral Space Force Station

Loading…

次のパス (今後24時間)

TLE

最新Source: CelesTrak SupGP

元期: Sep 15, 2026, 03:33 UTC

1 63285C 25053W   26258.14840278 -.00041051  00000+0 -14871-2 0  2589
2 63285  43.0028 251.6969 0001364 268.2540 322.1553 15.27593115    13

AllMySatでSTARLINK-33662をリアルタイム追跡

Download on the App Store